• In Slovakia
  • List of Countries
  • For 7 days
  • Water Temperature
  • Satellite Maps
  • Weather Map
  • Weather Widgets
  • user-avatar
    Login

    Hourly Weather Barra

    Today, 17 November, Friday

    Time Temperature Precipitation Wind Pressure Humidity
    00:00 +25°C° 0.1 mm 3 mps 748 mmHg 89%
    01:00 +25°C° 0.1 mm 3 mps 748 mmHg 90%
    02:00 +25°C° 0.1 mm 3 mps 748 mmHg 91%
    03:00 +24°C° 0.1 mm 3 mps 748 mmHg 92%
    04:00 +24°C° 0 mm 3 mps 748 mmHg 93%
    05:00 +24°C° 0.1 mm 3 mps 748 mmHg 91%
    06:00 +25°C° 0.1 mm 3 mps 748 mmHg 88%
    07:00 +25°C° 0.1 mm 3 mps 748 mmHg 86%
    08:00 +27°C° 0.1 mm 3 mps 748 mmHg 78%
    09:00 +28°C° 0.1 mm 3 mps 748 mmHg 69%
    10:00 +30°C° 0 mm 4 mps 748 mmHg 61%
    11:00 +32°C° 0 mm 4 mps 748 mmHg 58%
    12:00 +32°C° 0 mm 4 mps 748 mmHg 55%
    13:00 +33°C° 0 mm 4 mps 747 mmHg 52%
    14:00 +32°C° 0 mm 4 mps 747 mmHg 54%
    15:00 +32°C° 0 mm 4 mps 747 mmHg 56%
    16:00 +30°C° 0 mm 4 mps 747 mmHg 61%
    17:00 +28°C° 0 mm 4 mps 747 mmHg 67%
    18:00 +27°C° 0 mm 3 mps 747 mmHg 73%
    19:00 +25°C° 0 mm 3 mps 747 mmHg 80%
    20:00 +25°C° 0 mm 3 mps 748 mmHg 82%
    21:00 +24°C° 0 mm 3 mps 748 mmHg 85%
    22:00 +24°C° 0 mm 2 mps 748 mmHg 87%
    23:00 +23°C° 0 mm 2 mps 748 mmHg 88%

    Tomorrow, 18 November, Saturday

    Time Temperature Precipitation Wind Pressure Humidity
    00:00 +23°C° 0 mm 2 mps 748 mmHg 89%
    01:00 +23°C° 0 mm 2 mps 748 mmHg 90%
    02:00 +23°C° 0 mm 2 mps 747 mmHg 91%
    03:00 +23°C° 0 mm 2 mps 747 mmHg 92%
    04:00 +21°C° 0 mm 2 mps 747 mmHg 93%
    05:00 +23°C° 0 mm 2 mps 747 mmHg 89%
    06:00 +24°C° 0 mm 2 mps 748 mmHg 85%
    07:00 +25°C° 0 mm 2 mps 748 mmHg 80%
    08:00 +27°C° 0 mm 2 mps 748 mmHg 71%
    09:00 +29°C° 0 mm 3 mps 748 mmHg 62%
    10:00 +31°C° 0 mm 3 mps 748 mmHg 53%
    11:00 +33°C° 0 mm 3 mps 747 mmHg 51%
    12:00 +33°C° 0 mm 3 mps 747 mmHg 49%
    13:00 +34°C° 0 mm 3 mps 746 mmHg 48%
    14:00 +33°C° 0 mm 3 mps 746 mmHg 51%
    15:00 +33°C° 0 mm 3 mps 746 mmHg 53%
    16:00 +31°C° 0 mm 3 mps 745 mmHg 56%
    17:00 +29°C° 0 mm 3 mps 745 mmHg 63%
    18:00 +27°C° 0 mm 3 mps 746 mmHg 71%
    19:00 +26°C° 0 mm 2 mps 746 mmHg 78%
    20:00 +25°C° 0 mm 2 mps 746 mmHg 81%
    21:00 +25°C° 0 mm 2 mps 746 mmHg 84%
    22:00 +24°C° 0 mm 2 mps 747 mmHg 87%
    23:00 +24°C° 0 mm 2 mps 747 mmHg 88%

    Day after tomorrow, 19 November, Sunday

    Time Temperature Precipitation Wind Pressure Humidity
    00:00 +24°C° 0 mm 2 mps 746 mmHg 89%
    01:00 +24°C° 0 mm 2 mps 746 mmHg 90%
    02:00 +24°C° 0 mm 2 mps 746 mmHg 91%
    03:00 +23°C° 0 mm 1 mps 746 mmHg 93%
    04:00 +23°C° 0 mm 1 mps 746 mmHg 94%
    05:00 +24°C° 0 mm 1 mps 746 mmHg 90%
    06:00 +25°C° 0 mm 1 mps 747 mmHg 86%
    07:00 +26°C° 0 mm 1 mps 747 mmHg 82%
    08:00 +28°C° 0 mm 1 mps 747 mmHg 73%
    09:00 +29°C° 0 mm 1 mps 747 mmHg 65%
    10:00 +31°C° 0 mm 2 mps 747 mmHg 56%
    11:00 +32°C° 0 mm 2 mps 747 mmHg 53%
    12:00 +34°C° 0 mm 2 mps 746 mmHg 49%
    13:00 +35°C° 0 mm 3 mps 746 mmHg 45%
    14:00 +34°C° 0 mm 3 mps 745 mmHg 49%
    15:00 +34°C° 0 mm 3 mps 745 mmHg 52%
    16:00 +33°C° 0 mm 4 mps 744 mmHg 56%
    17:00 +30°C° 0 mm 4 mps 745 mmHg 64%
    18:00 +28°C° 0 mm 3 mps 745 mmHg 72%
    19:00 +26°C° 0 mm 3 mps 745 mmHg 80%
    20:00 +26°C° 0.1 mm 3 mps 746 mmHg 82%
    21:00 +26°C° 0.1 mm 3 mps 746 mmHg 84%
    22:00 +26°C° 0.1 mm 4 mps 747 mmHg 86%
    23:00 +26°C° 0.2 mm 4 mps 747 mmHg 87%

    20 November, Monday

    Time Temperature Precipitation Wind Pressure Humidity
    00:00 +25°C° 0.2 mm 3 mps 747 mmHg 88%
    01:00 +25°C° 0.2 mm 3 mps 747 mmHg 90%
    02:00 +25°C° 0.2 mm 3 mps 747 mmHg 90%
    03:00 +25°C° 0.2 mm 3 mps 747 mmHg 91%
    04:00 +24°C° 0.2 mm 3 mps 747 mmHg 92%
    05:00 +25°C° 0.2 mm 3 mps 747 mmHg 90%
    06:00 +25°C° 0.2 mm 3 mps 747 mmHg 87%
    07:00 +26°C° 0.2 mm 2 mps 748 mmHg 85%
    08:00 +27°C° 0.1 mm 3 mps 748 mmHg 77%
    09:00 +29°C° 0.1 mm 3 mps 748 mmHg 69%
    10:00 +30°C° 0.1 mm 3 mps 748 mmHg 61%
    11:00 +30°C° 0.1 mm 3 mps 748 mmHg 60%
    12:00 +31°C° 0.1 mm 3 mps 747 mmHg 59%
    13:00 +31°C° 0.1 mm 3 mps 747 mmHg 58%
    14:00 +31°C° 0 mm 3 mps 746 mmHg 60%
    15:00 +30°C° 0 mm 4 mps 746 mmHg 61%
    16:00 +30°C° 0 mm 4 mps 746 mmHg 62%
    17:00 +29°C° 0 mm 4 mps 746 mmHg 69%
    18:00 +27°C° 0 mm 4 mps 747 mmHg 75%
    19:00 +26°C° 0 mm 4 mps 747 mmHg 81%
    20:00 +26°C° 0.1 mm 4 mps 748 mmHg 83%
    21:00 +25°C° 0.1 mm 4 mps 748 mmHg 85%
    22:00 +25°C° 0.1 mm 4 mps 749 mmHg 87%
    23:00 +25°C° 0.2 mm 4 mps 748 mmHg 88%

    21 November, Tuesday

    Time Temperature Precipitation Wind Pressure Humidity
    00:00 +25°C° 0.2 mm 4 mps 748 mmHg 89%
    01:00 +25°C° 0.2 mm 4 mps 747 mmHg 90%
    02:00 +23°C° 0.2 mm 4 mps 747 mmHg 90%
    03:00 +24°C° 0.2 mm 3 mps 747 mmHg 91%
    04:00 +24°C° 0.2 mm 3 mps 746 mmHg 91%
    05:00 +24°C° 0.5 mm 3 mps 747 mmHg 90%
    06:00 +25°C° 0.5 mm 3 mps 747 mmHg 88%
    07:00 +25°C° 0.5 mm 3 mps 748 mmHg 87%
    08:00 +26°C° 0.7 mm 3 mps 748 mmHg 79%
    09:00 +28°C° 0.7 mm 3 mps 748 mmHg 72%
    10:00 +29°C° 0.7 mm 3 mps 749 mmHg 65%
    11:00 +30°C° 0.1 mm 3 mps 748 mmHg 62%
    12:00 +30°C° 0.1 mm 3 mps 747 mmHg 59%
    13:00 +32°C° 0.1 mm 4 mps 747 mmHg 57%
    14:00 +30°C° 0.1 mm 4 mps 746 mmHg 59%
    15:00 +30°C° 0.1 mm 4 mps 746 mmHg 62%
    16:00 +29°C° 0.1 mm 4 mps 745 mmHg 65%
    17:00 +28°C° 0.1 mm 4 mps 746 mmHg 71%
    18:00 +26°C° 0.1 mm 4 mps 746 mmHg 78%
    19:00 +25°C° 0.1 mm 4 mps 746 mmHg 85%
    20:00 +25°C° 0.3 mm 4 mps 746 mmHg 86%
    21:00 +25°C° 0.3 mm 3 mps 746 mmHg 88%
    22:00 +25°C° 0.3 mm 3 mps 746 mmHg 90%
    23:00 +24°C° 0.7 mm 3 mps 746 mmHg 90%

    22 November, Wednesday

    Time Temperature Precipitation Wind Pressure Humidity
    00:00 +24°C° 0.7 mm 3 mps 746 mmHg 91%
    01:00 +24°C° 0.7 mm 3 mps 746 mmHg 91%
    02:00 +24°C° 0.4 mm 3 mps 745 mmHg 92%
    03:00 +24°C° 0.4 mm 3 mps 745 mmHg 92%
    04:00 +24°C° 0.4 mm 3 mps 745 mmHg 93%
    05:00 +24°C° 0.6 mm 2 mps 745 mmHg 92%
    06:00 +24°C° 0.6 mm 2 mps 746 mmHg 90%
    07:00 +25°C° 0.6 mm 2 mps 746 mmHg 89%
    08:00 +26°C° 0.3 mm 2 mps 746 mmHg 81%
    09:00 +28°C° 0.3 mm 2 mps 746 mmHg 72%
    10:00 +30°C° 0.3 mm 2 mps 746 mmHg 64%
    11:00 +30°C° 0.1 mm 2 mps 745 mmHg 62%
    12:00 +30°C° 0.1 mm 3 mps 745 mmHg 61%
    13:00 +31°C° 0.1 mm 3 mps 744 mmHg 59%
    14:00 +30°C° 0.2 mm 3 mps 743 mmHg 62%
    15:00 +30°C° 0.2 mm 4 mps 743 mmHg 65%
    16:00 +29°C° 0.2 mm 4 mps 743 mmHg 68%
    17:00 +28°C° 0.2 mm 4 mps 743 mmHg 73%
    18:00 +27°C° 0.2 mm 4 mps 743 mmHg 78%
    19:00 +26°C° 0.2 mm 3 mps 744 mmHg 83%
    20:00 +25°C° 0.5 mm 3 mps 744 mmHg 85%
    21:00 +25°C° 0.5 mm 3 mps 744 mmHg 88%
    22:00 +25°C° 0.5 mm 3 mps 745 mmHg 90%
    23:00 +25°C° 1.4 mm 3 mps 745 mmHg 91%
    Show more